Roanoke Rapids, NC

7:33 PM EDT on April 24, 2017 (GMT -0400)
Roanoke Rapids

Weather History for KIXA - December, 2012

Change the Weather History Date:

Wednesday, December 5, 2012

  Actual Average (KETC) Record (KETC)
Temperature  
Mean Temperature 38 °F -  
Max Temperature 62 °F 57 °F 75 °F (1955)
Min Temperature -4 °F 31 °F 18 °F (1989)
Degree Days  
Heating Degree Days 27    
Moisture  
Dew Point 52 °F    
Average Humidity 96    
Maximum Humidity 100    
Minimum Humidity 88    
Precipitation  
Precipitation 0.08 in - - ()
Sea Level Pressure  
Sea Level Pressure 30.15 in    
Wind  
Wind Speed 5 mph (WSW)    
Max Wind Speed 12 mph    
Max Gust Speed -    
Visibility 8 miles    
Events Fog , Rain    
Averages and records for this station are not official NWS values.
T = Trace of Precipitation, MM = Missing Value Source: NWS Daily Summary

Daily Weather History Graph

Daily Weather History Graph

Search for Another Location

Airport or City:

Trip Planner

Search our weather history database for the weather conditions in past years. The results will help you decide how hot, cold, wet, or windy it might be!

Date:

Astronomy

Dec. 05, 2012 Rise Set
Actual Time 7:07 AM EST 4:55 PM EST
Civil Twilight 6:38 AM EST 5:23 PM EST
Nautical Twilight 6:06 AM EST 5:55 PM EST
Astronomical Twilight 5:35 AM EST 6:26 PM EST
Moon 11:34 PM EST (12/5) 11:37 AM EST (12/5)
Length of Visible Light 10h 44m
Length of Day
9h 47m
Waning Gibbous, 60% of the Moon is Illuminated
Dec 5
Waning Gibbous
Dec 6
Last Quarter
Dec 13
New
Dec 20
First Quarter
Dec 28
Full

Hourly Weather History & Observations

Time (EST) Temp. Windchill Dew Point Humidity Pressure Visibility Wind Dir Wind Speed Gust Speed Precip Events Conditions
12:15 AM 55.4 °F - 55.4 °F 100% 30.15 in 10.0 mi SSW 5.8 mph - N/A   Clear
12:35 AM 55.4 °F - 55.4 °F 100% 30.15 in 10.0 mi South 4.6 mph - N/A   Clear
12:55 AM 55.4 °F - 55.4 °F 100% 30.14 in 10.0 mi SSW 5.8 mph - N/A   Clear
1:15 AM 55.4 °F - 55.4 °F 100% 30.13 in 10.0 mi SSW 5.8 mph - N/A   Clear
1:35 AM 55.4 °F - 55.4 °F 100% 30.14 in 7.0 mi SSW 3.5 mph - N/A   Clear
1:55 AM 53.6 °F - 53.6 °F 100% 30.13 in 7.0 mi SSW 5.8 mph - N/A   Clear
2:15 AM 55.4 °F - 55.4 °F 100% 30.13 in 10.0 mi SSW 8.1 mph - N/A   Clear
2:35 AM 55.4 °F - 55.4 °F 100% 30.13 in 10.0 mi SSW 9.2 mph - N/A   Clear
2:55 AM 55.4 °F - 55.4 °F 100% 30.12 in 10.0 mi SSW 9.2 mph - N/A   Clear
3:15 AM 55.4 °F - 55.4 °F 100% 30.12 in 10.0 mi SSW 8.1 mph - N/A   Scattered Clouds
3:35 AM 55.4 °F - 55.4 °F 100% 30.11 in 10.0 mi SSW 8.1 mph - N/A   Mostly Cloudy
3:55 AM 57.2 °F - 55.4 °F 94% 30.11 in 10.0 mi SW 9.2 mph - N/A   Overcast
4:15 AM 57.2 °F - 55.4 °F 94% 30.10 in 10.0 mi SSW 10.4 mph - N/A   Overcast
4:35 AM 59.0 °F - 55.4 °F 88% 30.10 in 10.0 mi SSW 9.2 mph - N/A   Overcast
4:55 AM 59.0 °F - 55.4 °F 88% 30.10 in 10.0 mi SW 8.1 mph - N/A   Overcast
5:15 AM 59.0 °F - 55.4 °F 88% 30.10 in 10.0 mi SSW 8.1 mph - N/A   Overcast
5:35 AM 59.0 °F - 55.4 °F 88% 30.10 in 10.0 mi SSW 8.1 mph - N/A   Overcast
5:55 AM 59.0 °F - 55.4 °F 88% 30.10 in 10.0 mi SSW 8.1 mph - N/A   Overcast
6:15 AM 59.0 °F - 57.2 °F 94% 30.10 in 10.0 mi SSW 6.9 mph - N/A   Overcast
6:35 AM 59.0 °F - 57.2 °F 94% 30.10 in 10.0 mi SSW 6.9 mph - N/A   Overcast
6:55 AM 59.0 °F - 55.4 °F 88% 30.10 in 10.0 mi SSW 6.9 mph - N/A   Overcast
7:15 AM 59.0 °F - 57.2 °F 94% 30.11 in 10.0 mi SSW 6.9 mph - N/A   Overcast
7:35 AM 57.2 °F - 55.4 °F 94% 30.11 in 10.0 mi SSW 5.8 mph - N/A   Scattered Clouds
7:55 AM 59.0 °F - 57.2 °F 94% 30.12 in 10.0 mi SSW 5.8 mph - N/A   Clear
9:55 AM 62.6 °F - 59.0 °F 88% 30.15 in 10.0 mi WSW 6.9 mph - N/A   Overcast
10:15 AM 62.6 °F - 59.0 °F 88% 30.15 in 10.0 mi West 5.8 mph - N/A   Overcast
10:35 AM 62.6 °F - 59.0 °F 88% 30.15 in 10.0 mi West 4.6 mph - N/A Rain Light Rain
10:55 AM 62.6 °F - 59.0 °F 88% 30.15 in 10.0 mi WNW 5.8 mph - N/A   Light Drizzle
11:15 AM 62.6 °F - 59.0 °F 88% 30.15 in 10.0 mi WNW 4.6 mph - N/A   Drizzle
11:35 AM 62.6 °F - 59.0 °F 88% 30.15 in 10.0 mi WNW 4.6 mph - N/A   Overcast
11:55 AM 60.8 °F - 59.0 °F 94% 30.14 in 10.0 mi NW 9.2 mph - N/A Rain Rain
12:15 PM 60.8 °F - 59.0 °F 94% 30.14 in 10.0 mi NNW 9.2 mph - N/A Rain Light Rain
12:35 PM 60.8 °F - 59.0 °F 94% 30.14 in 10.0 mi NNW 5.8 mph - 0.01 in Rain Light Rain
12:55 PM 59.0 °F - 59.0 °F 100% 30.13 in 5.0 mi North 5.8 mph - 0.03 in Rain Rain
1:15 PM 59.0 °F - 59.0 °F 100% 30.13 in 5.0 mi North 6.9 mph - 0.01 in Rain Light Rain
1:35 PM 59.0 °F - 59.0 °F 100% 30.12 in 7.0 mi North 4.6 mph - 0.02 in Rain Light Rain
1:55 PM 57.2 °F - 55.4 °F 94% 30.13 in 10.0 mi NNE 9.2 mph - 0.03 in Rain Light Rain
2:15 PM 55.4 °F - 55.4 °F 100% 30.13 in 10.0 mi NNE 6.9 mph - 0.01 in Rain Rain
2:35 PM 55.4 °F - 53.6 °F 94% 30.13 in 10.0 mi NNE 4.6 mph - 0.02 in Rain Rain
2:55 PM 53.6 °F - 51.8 °F 94% 30.13 in 10.0 mi NNE 5.8 mph - 0.02 in   Light Drizzle
3:15 PM 53.6 °F - 53.6 °F 100% 30.14 in 10.0 mi NNE 4.6 mph - N/A   Light Drizzle
3:35 PM 55.4 °F - 53.6 °F 94% 30.14 in 10.0 mi Calm Calm - N/A   Overcast
3:55 PM 53.6 °F - 53.6 °F 100% 30.15 in 10.0 mi Calm Calm - N/A   Overcast
4:15 PM 53.6 °F - 53.6 °F 100% 30.15 in 10.0 mi Calm Calm - N/A   Overcast
4:35 PM 53.6 °F - 53.6 °F 100% 30.15 in 10.0 mi Calm Calm - N/A   Overcast
4:55 PM 53.6 °F - 53.6 °F 100% 30.15 in 10.0 mi Calm Calm - N/A   Overcast
5:15 PM 53.6 °F - 53.6 °F 100% 30.16 in 10.0 mi Calm Calm - N/A   Overcast
5:35 PM 53.6 °F - 53.6 °F 100% 30.16 in 10.0 mi Calm Calm - N/A   Overcast
5:55 PM 53.6 °F - 53.6 °F 100% 30.17 in 10.0 mi Calm Calm - N/A   Overcast
6:15 PM 53.6 °F - 53.6 °F 100% 30.17 in 10.0 mi Calm Calm - N/A   Overcast
6:35 PM 53.6 °F - 53.6 °F 100% 30.18 in 10.0 mi Calm Calm - N/A   Overcast
7:15 PM 51.8 °F - 51.8 °F 100% 30.18 in 10.0 mi Calm Calm - N/A   Overcast
7:35 PM 51.8 °F - 51.8 °F 100% 30.18 in 7.0 mi Calm Calm - N/A   Overcast
7:55 PM 50.0 °F - 50.0 °F 100% 30.19 in 0.8 mi Calm Calm - N/A   Mostly Cloudy
8:15 PM 48.2 °F - 48.2 °F 100% 30.19 in 0.2 mi Calm Calm - N/A Fog Fog
8:35 PM 46.4 °F - 46.4 °F 100% 30.19 in 0.2 mi Calm Calm - N/A Fog Fog
8:55 PM 44.6 °F - 44.6 °F 100% 30.20 in 0.2 mi Calm Calm - N/A Fog Fog
9:15 PM 44.6 °F - 44.6 °F 100% 30.20 in 0.2 mi Calm Calm - N/A Fog Fog
9:55 PM 42.8 °F - 42.8 °F 100% 30.20 in 0.2 mi Calm Calm - N/A Fog Fog
10:15 PM 41.0 °F - 41.0 °F 100% 30.20 in 0.5 mi Calm Calm - N/A Fog Fog
10:35 PM 41.0 °F - 41.0 °F 100% 30.20 in 0.2 mi Calm Calm - N/A Fog Fog
10:55 PM 37.4 °F - 37.4 °F 100% 30.20 in 0.5 mi Calm Calm - N/A Fog Fog
11:15 PM 33.8 °F - 33.8 °F 100% 30.21 in 0.5 mi Calm Calm - N/A Fog Fog
11:35 PM 14.0 °F 0.5 °F 14.0 °F 100% 30.23 in 0.2 mi North 11.5 mph - N/A Fog Light Freezing Fog
11:55 PM -4.0 °F -16.3 °F -4.0 °F 100% 30.23 in 7.0 mi NNE 5.8 mph - N/A   Overcast